Location: Baller�as
(41.9020°N, 0.1554°W)
Time: 11:59:36
(UTC+00:00)

Cosmos 1862 Rocket - Pass Details

Date: 10 August 2020
Orbit: 603 x 635 km, 82.5° (Epoch: 22 September)

Event Time Altitude Azimuth Distance (km) Brightness Sun altitude
Rises 20:27:32 0° 360° (N) 2,933 7.6 -13.9°
Reaches altitude 10° 20:29:57 10° 9° (N) 2,017 6.5 -14.3°
Maximum altitude 20:34:04 36° 76° (ENE) 1,003 4.3 -14.9°
Enters shadow 20:35:47 26° 120° (ESE) 1,236 4.5 -15.2°
